Dewpoint
70 69 75 75 75 74 74 74 75 75 75 76 75 75 74 73 74 75 74 73 73 72 72 72 72 74 74 74 74 74 74 75 75 75 74 74 74 74 74 73 73 68 74
67 68 76 76 75 75 75 75 75 75 75 75 74 74 74 75 75 74 73 74 73 73 72 72 72 72 73 73 74 73 73 75 74 74 75 75 74 73 74 73 74 71 74
64 69 72 76 76 75 76 76 75 75 75 74 74 74 75 75 74 73 73 74 73 73 73 71 71 73 73 73 73 74 74 74 74 74 73 70 70 73 74 74 73 73 73
62 66 68 75 76 75 76 76 76 75 75 75 75 75 75 74 74 73 73 73 74 73 73 73 73 72 73 73 73 73 74 74 74 73 71 70 68 73 74 73 74 73 73
63 66 72 75 76 75 76 75 75 75 75 75 75 74 74 74 73 73 73 73 72 73 73 72 72 72 72 73 73 73 73 73 72 71 70 72 73 73 73 73 73 73 73
62 65 74 75 75 75 75 75 75 75 75 74 74 74 74 74 73 73 73 73 73 72 73 72 72 71 71 72 73 72 73 71 72 70 69 71 69 73 73 73 73 73 73
61 66 71 76 75 75 75 75 75 74 74 75 75 74 74 74 74 74 74 73 73 73 72 72 72 72 71 71 72 73 71 70 68 70 69 70 71 74 73 73 73 73 73
61 64 69 75 75 75 75 75 75 74 75 75 74 74 74 75 74 74 73 73 72 72 71 72 72 72 72 73 74 73 71 69 66 67 71 67 73 74 73 73 73 72 71
62 64 67 70 74 75 75 75 75 74 74 75 75 75 75 75 74 73 73 72 72 71 71 72 72 72 73 74 73 73 71 70 66 66 64 66 74 73 73 73 73 73 73
62 63 66 67 70 70 71 75 75 75 74 74 75 75 75 74 73 71 74 73 71 71 71 71 72 72 73 74 74 73 72 72 63 64 64 68 74 73 73 73 72 73 73
62 63 66 64 68 70 71 73 75 75 75 75 75 75 74 67 67 69 73 73 72 71 71 71 72 73 73 73 73 72 73 62 61 62 63 72 73 73 73 73 73 72 72
61 62 64 65 67 68 66 72 72 71 70 69 70 72 68 69 70 68 71 73 73 72 73 71 72 72 73 66 68 71 63 65 62 63 66 72 72 72 72 73 72 72 72
61 61 63 66 69 67 69 69 69 68 69 70 73 72 70 68 68 67 69 69 69 72 67 69 70 66 65 65 66 64 65 65 62 62 70 73 72 72 72 72 72 71 72
61 63 63 67 70 68 69 67 67 66 67 67 69 73 72 68 69 69 67 69 70 67 70 69 66 68 69 69 66 66 65 63 61 61 70 71 71 70 71 72 72 72 72
60 63 64 67 71 71 71 68 67 67 66 66 69 71 69 67 70 68 70 70 69 68 68 68 68 68 70 67 67 67 66 66 65 62 66 72 70 70 71 72 71 71 71
61 63 65 67 70 71 71 72 70 69 68 68 66 68 72 69 71 69 71 70 69 68 67 68 68 66 64 64 68 67 67 66 67 67 64 68 72 70 68 68 69 69 69
62 63 65 67 68 71 71 72 70 69 67 67 67 71 71 72 74 73 70 74 69 71 72 70 69 67 61 62 67 68 66 66 66 67 67 69 70 73 71 69 69 68 69
62 65 66 64 66 69 70 71 68 67 67 66 67 68 71 73 74 74 72 68 70 69 66 65 63 62 61 61 64 64 66 65 67 67 67 67 67 68 71 71 71 71 71
64 66 67 67 66 68 71 70 69 70 69 68 69 69 74 73 74 71 69 70 73 67 66 63 62 62 61 59 61 64 64 63 65 62 66 68 67 66 66 72 72 72 71
64 66 68 66 68 70 68 70 67 68 69 69 69 69 74 72 73 71 70 72 71 66 65 64 67 66 62 61 56 61 63 64 65 64 63 62 64 66 65 69 68 70 72
64 66 68 68 70 69 66 66 66 66 67 68 68 72 73 73 74 73 70 71 70 68 70 71 68 70 63 65 59 60 63 65 64 64 64 62 64 64 65 66 66 64 68
64 67 68 69 71 70 66 67 66 67 66 67 69 72 73 73 74 73 74 72 71 67 71 71 70 64 63 64 61 58 57 57 59 60 62 63 64 64 64 64 66 68 66
64 67 68 70 71 71 70 67 69 69 70 70 70 70 72 73 73 75 75 74 72 70 67 70 72 69 61 64 67 59 54 54 57 60 63 62 66 63 65 65 65 66 67
63 67 69 71 72 71 72 69 73 68 66 65 67 67 69 73 73 74 75 75 73 71 73 70 70 69 68 62 63 62 66 65 57 58 59 61 63 62 64 63 62 64 66
62 64 68 72 73 73 73 73 68 71 64 65 65 72 74 75 74 72 75 75 75 72 72 73 73 73 67 63 60 62 65 60 64 57 55 58 60 60 61 62 61 62 65
63 64 66 71 74 73 73 71 74 73 71 65 69 67 67 68 71 74 74 75 75 72 73 72 73 73 72 69 63 64 60 59 59 59 57 60 58 60 60 61 61 61 62
Lifted_Index
-3 -3 -4 -5 -5 -5 -5 -5 -5 -6 -6 -6 -6 -6 -6 -6 -6 -6 -6 -5 -5 -4 -4 -4 -5 -5 -5 -5 -5 -6 -6 -6 -7 -7 -7 -7 -7 -6 -6 -6 -5 -5 -6
-2 -3 -4 -5 -5 -5 -5 -5 -6 -6 -6 -6 -6 -6 -6 -6 -6 -6 -6 -6 -5 -5 -5 -4 -5 -5 -5 -5 -5 -5 -6 -6 -6 -7 -7 -7 -6 -6 -6 -6 -5 -5 -6
-2 -3 -4 -5 -5 -5 -6 -6 -6 -6 -6 -6 -6 -6 -6 -7 -6 -6 -6 -6 -5 -5 -5 -5 -5 -5 -5 -5 -5 -5 -5 -6 -6 -6 -6 -6 -6 -6 -6 -6 -6 -6 -6
-1 -2 -4 -5 -5 -6 -6 -6 -6 -6 -7 -7 -7 -7 -6 -6 -6 -5 -5 -5 -5 -5 -5 -5 -5 -5 -5 -5 -5 -5 -5 -6 -6 -6 -6 -5 -5 -6 -6 -6 -6 -5 -5
-1 -2 -4 -5 -5 -6 -6 -6 -6 -6 -7 -7 -7 -6 -6 -6 -5 -5 -5 -5 -5 -5 -5 -5 -5 -5 -5 -5 -4 -4 -5 -5 -5 -5 -5 -5 -5 -5 -6 -5 -5 -5 -5
-1 -2 -4 -5 -5 -6 -6 -6 -6 -6 -6 -6 -6 -6 -6 -5 -5 -5 -5 -5 -5 -4 -5 -5 -5 -4 -4 -4 -4 -4 -4 -4 -5 -5 -5 -5 -5 -5 -5 -5 -5 -5 -5
-1 -2 -4 -5 -5 -5 -6 -6 -6 -6 -6 -6 -5 -5 -5 -5 -5 -5 -5 -5 -4 -4 -4 -5 -5 -4 -4 -4 -4 -4 -4 -4 -4 -4 -5 -5 -5 -5 -5 -5 -5 -5 -5
-1 -2 -3 -5 -5 -5 -5 -6 -5 -5 -5 -5 -5 -5 -5 -5 -5 -5 -5 -4 -4 -4 -4 -4 -4 -4 -4 -4 -4 -4 -4 -3 -4 -4 -4 -4 -5 -6 -6 -6 -6 -5 -5
-1 -2 -3 -4 -5 -5 -5 -5 -5 -5 -5 -5 -5 -5 -5 -5 -4 -4 -4 -4 -4 -4 -4 -4 -4 -4 -5 -5 -5 -4 -4 -3 -3 -3 -3 -4 -5 -6 -6 -6 -6 -5 -5
-1 -2 -2 -3 -4 -4 -4 -5 -5 -5 -5 -5 -5 -5 -5 -4 -4 -3 -3 -4 -4 -4 -4 -4 -4 -4 -5 -5 -5 -4 -4 -3 -2 -2 -3 -4 -5 -6 -6 -6 -5 -5 -5
-1 -1 -2 -2 -3 -3 -3 -4 -5 -4 -4 -4 -4 -5 -4 -3 -3 -3 -3 -3 -4 -4 -4 -4 -4 -5 -5 -5 -5 -4 -4 -2 -2 -2 -3 -4 -5 -5 -5 -5 -5 -5 -5
-1 -1 -1 -2 -2 -3 -3 -3 -4 -4 -4 -4 -4 -4 -4 -3 -3 -3 -3 -3 -3 -4 -4 -4 -4 -4 -4 -4 -4 -4 -3 -2 -2 -2 -3 -4 -5 -5 -5 -5 -5 -5 -5
-0 -1 -1 -2 -2 -2 -3 -3 -3 -3 -3 -4 -4 -4 -4 -3 -3 -3 -3 -3 -3 -3 -3 -3 -3 -3 -3 -3 -3 -3 -3 -2 -1 -2 -3 -4 -4 -4 -4 -4 -5 -5 -5
-0 -0 -1 -2 -2 -2 -3 -3 -3 -3 -3 -3 -3 -4 -4 -3 -3 -3 -3 -3 -3 -3 -3 -3 -3 -2 -3 -3 -3 -3 -3 -2 -1 -2 -3 -3 -4 -4 -4 -4 -4 -4 -4
-0 -1 -1 -2 -2 -3 -3 -3 -3 -3 -3 -3 -3 -3 -3 -3 -3 -3 -3 -3 -3 -3 -2 -2 -2 -2 -2 -2 -2 -3 -3 -2 -2 -2 -2 -3 -3 -3 -3 -4 -4 -4 -4
-0 -1 -1 -1 -2 -3 -3 -3 -3 -3 -3 -3 -3 -3 -3 -4 -4 -4 -4 -4 -3 -3 -3 -2 -2 -1 -1 -1 -2 -3 -3 -2 -2 -2 -2 -3 -3 -3 -3 -3 -3 -3 -3
-0 -1 -1 -1 -2 -2 -3 -3 -3 -3 -3 -3 -3 -3 -4 -4 -5 -5 -4 -4 -3 -3 -3 -2 -2 -1 -0 -0 -2 -2 -2 -2 -2 -2 -3 -3 -3 -3 -3 -2 -2 -3 -3
-0 -1 -1 -1 -1 -2 -3 -3 -3 -3 -3 -3 -3 -3 -4 -5 -5 -5 -4 -4 -3 -3 -2 -1 -1 0 0 0 -1 -2 -2 -2 -2 -2 -2 -3 -3 -3 -3 -3 -3 -3 -3
-0 -1 -1 -1 -1 -2 -2 -3 -3 -3 -3 -3 -4 -4 -5 -5 -5 -4 -4 -3 -3 -2 -1 -1 -0 0 1 1 0 -1 -1 -1 -1 -1 -2 -2 -2 -2 -2 -2 -2 -2 -2
-0 -0 -1 -1 -1 -1 -2 -2 -2 -3 -3 -3 -4 -4 -5 -5 -5 -4 -4 -3 -2 -2 -1 -1 -1 -1 0 1 1 0 -0 -1 -1 -1 -1 -1 -1 -1 -1 -1 -2 -2 -2
-0 -0 -1 -1 -1 -1 -2 -2 -2 -2 -3 -3 -3 -4 -4 -5 -4 -4 -4 -3 -2 -2 -2 -2 -2 -1 -0 0 1 1 0 -0 -0 -1 -0 -0 -0 -0 -1 -1 -1 -1 -1
-1 -1 -1 -1 -1 -1 -1 -1 -2 -2 -2 -3 -3 -4 -4 -4 -4 -4 -4 -3 -2 -2 -2 -2 -2 -1 -0 -0 0 1 1 1 0 -0 -0 -0 -0 -0 -0 -0 -1 -1 -1
-1 -1 -1 -1 -2 -2 -1 -1 -2 -2 -2 -3 -3 -3 -4 -4 -4 -4 -4 -3 -3 -2 -2 -2 -2 -2 -1 -0 -0 0 1 1 0 0 -0 -0 -1 -1 -1 -1 -1 -1 -1
-1 -1 -2 -2 -2 -2 -1 -1 -2 -2 -2 -2 -2 -3 -3 -4 -4 -4 -4 -4 -3 -2 -2 -2 -3 -2 -1 -1 -0 -0 -0 -0 0 0 -0 -0 -1 -1 -1 -1 -1 -1 -1
-1 -1 -2 -2 -3 -2 -2 -2 -2 -2 -1 -1 -2 -2 -3 -3 -4 -4 -4 -4 -3 -3 -3 -3 -3 -3 -2 -1 -1 -1 -1 -0 -0 -0 -0 -0 -1 -1 -1 -1 -1 -1 -1
-1 -1 -2 -2 -3 -3 -2 -2 -2 -2 -2 -1 -2 -2 -2 -3 -3 -4 -4 -4 -4 -3 -3 -3 -4 -3 -3 -2 -1 -1 -1 -0 -0 -0 -0 -1 -1 -1 -1 -1 -1 -1 -1